WetterOnline ( http://www.wetteronline.de )

Wetter aktuell Darmstadt

Aktuelles Wetter: Offenbach (119m)

6-stündlich | Neueste Meldungen
Ortszeit Temperatur Wetter
Do, 20.09. 8:00 15.3° C bewölkt
Do, 20.09. 2:00 17.5° C wolkig
Mi, 19.09. 20:00 24.9° C wolkig
Mi, 19.09. 14:00 28.4° C wolkenlos
Mi, 19.09. 8:00 15.8° C leicht bewölkt
Mi, 19.09. 2:00 18.4° C wolkenlos
Di, 18.09. 20:00 25.2° C wolkig
Di, 18.09. 14:00 29.4° C wolkenlos
Ortszeit Temperatur Wetter
Do, 20.09. 8:00 15.3° C bewölkt
Do, 20.09. 7:50 15.3° C bewölkt
Do, 20.09. 7:40 15.1° C bewölkt
Do, 20.09. 7:30 15.3° C wolkig
Do, 20.09. 7:20 15.3° C wolkig
Do, 20.09. 7:10 15.4° C wolkig
Do, 20.09. 7:00 15.5° C wolkig
Do, 20.09. 6:30 15.6° C bewölkt
Do, 20.09. 6:00 15.6° C bewölkt
Do, 20.09. 5:30 15.0° C wolkig
Do, 20.09. 5:00 14.8° C wolkig
Ortszeit Relative Feuchte Sichtweite
Do, 20.09. 8:00 87% 30 km
Do, 20.09. 2:00 78% 50 km
Mi, 19.09. 20:00 48% 50 km
Mi, 19.09. 14:00 38% 50 km
Mi, 19.09. 8:00 87% 22 km
Mi, 19.09. 2:00 79% 35 km
Di, 18.09. 20:00 49% 30 km
Di, 18.09. 14:00 33% 45 km
Ortszeit Relative Feuchte Sichtweite
Do, 20.09. 8:00 87% 30 km
Do, 20.09. 7:50 87% -
Do, 20.09. 7:40 87% -
Do, 20.09. 7:30 88% 30 km
Do, 20.09. 7:20 88% -
Do, 20.09. 7:10 87% -
Do, 20.09. 7:00 87% 30 km
Do, 20.09. 6:30 87% 30 km
Do, 20.09. 6:00 86% 35 km
Do, 20.09. 5:30 88% 35 km
Do, 20.09. 5:00 88% 35 km
Ortszeit Niederschlagsmenge Niederschlagsart
Do, 20.09. 8:00 0.0 l/m2 in 12 Std. -
Do, 20.09. 2:00 0.0 l/m2 in 6 Std. -
Mi, 19.09. 20:00 0.0 l/m2 in 12 Std. -
Mi, 19.09. 14:00 0.0 l/m2 in 6 Std. -
Mi, 19.09. 8:00 0.0 l/m2 in 12 Std. -
Mi, 19.09. 2:00 0.0 l/m2 in 6 Std. -
Di, 18.09. 20:00 0.0 l/m2 in 12 Std. -
Di, 18.09. 14:00 0.0 l/m2 in 6 Std. -
Ortszeit Niederschlagsmenge Niederschlagsart
Do, 20.09. 8:00 0.0 l/m2 in 1 Std. -
Do, 20.09. 7:50 keine Meldung -
Do, 20.09. 7:40 keine Meldung -
Do, 20.09. 7:30 0.0 l/m2 in 1 Std. -
Do, 20.09. 7:20 keine Meldung -
Do, 20.09. 7:10 keine Meldung -
Do, 20.09. 7:00 0.0 l/m2 in 1 Std. -
Do, 20.09. 6:30 0.0 l/m2 in 1 Std. -
Do, 20.09. 6:00 0.0 l/m2 in 1 Std. -
Do, 20.09. 5:30 0.0 l/m2 in 1 Std. -
Do, 20.09. 5:00 0.0 l/m2 in 1 Std. -
Ortszeit Stärke Spitze Richtung
km/h Bft. km/h Grad Sektor
Do, 20.09. 8:00 4 1 7 130° SO
Do, 20.09. 2:00 4 1 11 170° S
Mi, 19.09. 20:00 0 0 32 - -
Mi, 19.09. 14:00 13 3 28 210° SW
Mi, 19.09. 8:00 4 1 11 130° SO
Mi, 19.09. 2:00 0 0 11 - -
Di, 18.09. 20:00 4 1 32 190° S
Di, 18.09. 14:00 13 3 28 230° SW
Ortszeit Stärke Spitze Richtung
km/h Bft. km/h Grad Sektor
Do, 20.09. 8:00 4 1 4 130° SO
Do, 20.09. 7:50 4 1 - 130° SO
Do, 20.09. 7:40 4 1 - 130° SO
Do, 20.09. 7:30 4 1 4 120° SO
Do, 20.09. 7:20 4 1 - 120° SO
Do, 20.09. 7:10 2 1 - 130° SO
Do, 20.09. 7:00 0 0 4 - -
Do, 20.09. 6:30 4 1 4 30° NO
Do, 20.09. 6:00 4 1 7 190° S
Do, 20.09. 5:30 4 1 7 170° S
Do, 20.09. 5:00 4 1 4 150° SO
Ortszeit Untergrenze Bedeckung Gattung
total tief tief mittel hoch
Do, 20.09. 8:00 5100 m 8/8 7/8 - - -
Do, 20.09. 2:00 10500 m 8/8 0/8 - - -
Mi, 19.09. 20:00 10500 m 8/8 0/8 - - -
Mi, 19.09. 14:00 - 0/8 0/8 - - -
Mi, 19.09. 8:00 8100 m 3/8 0/8 - - -
Mi, 19.09. 2:00 - 0/8 0/8 - - -
Di, 18.09. 20:00 2400 m 5/8 5/8 - - -
Di, 18.09. 14:00 - 0/8 0/8 - - -
Ortszeit Bedeckungsgrad in Achtel und Wolkenuntergrenze
Do, 20.09. 8:00 7(5100m) 8(8400m) 8(9000m)
Do, 20.09. 7:50 7(5100m) 8(8400m) 8(9000m)
Do, 20.09. 7:40 6(5100m) 8(8400m) 8(9000m)
Do, 20.09. 7:30 1(1800m) 8(8100m) 8(8400m)
Do, 20.09. 7:20 1(1800m) 8(8100m)
Do, 20.09. 7:10 2(1800m) 8(8100m) 8(9000m)
Do, 20.09. 7:00 8(8100m) 8(9000m) 8(10500m)
Do, 20.09. 6:30 6(1800m) 8(8700m) 8(9000m)
Do, 20.09. 6:00 7(1800m) 8(8400m) 8(9000m)
Do, 20.09. 5:30 2(1800m) 8(8400m) 8(9000m)
Do, 20.09. 5:00 5(8100m) 8(8700m) 8(9000m)
Ortszeit Luftdruck NN (hPa) Tendenz (hPa in 3 Std.)
Do, 20.09. 8:00 1020 + 0,5
Do, 20.09. 2:00 1019 + 0,4
Mi, 19.09. 20:00 1018 + 0,1
Mi, 19.09. 14:00 1019 - 0,7
Mi, 19.09. 8:00 1019 + 0,9
Mi, 19.09. 2:00 1017 + 0,9
Di, 18.09. 20:00 1014 + 0,4
Di, 18.09. 14:00 1015 - 1,4
Ortszeit Luftdruck NN (hPa) Tendenz (hPa in 3 Std.)
Do, 20.09. 8:00 1020 + 0,5
Do, 20.09. 7:50 1020 keine Meldung
Do, 20.09. 7:40 1020 keine Meldung
Do, 20.09. 7:30 1020 + 0,5
Do, 20.09. 7:20 1020 keine Meldung
Do, 20.09. 7:10 1020 keine Meldung
Do, 20.09. 7:00 1019 + 0,3
Do, 20.09. 6:30 1019 + 0,2
Do, 20.09. 6:00 1019 + 0,1
Do, 20.09. 5:30 1019 - 0,1
Do, 20.09. 5:00 1019 - 0,2
Ortszeit Schneehöhe (cm)
Do, 20.09. 8:00 -
Do, 20.09. 2:00 -
Mi, 19.09. 20:00 -
Mi, 19.09. 14:00 -
Mi, 19.09. 8:00 -
Mi, 19.09. 2:00 -
Di, 18.09. 20:00 -
Di, 18.09. 14:00 -
Ortszeit Schneehöhe (cm)
Do, 20.09. 8:00 -
Do, 20.09. 7:50 -
Do, 20.09. 7:40 -
Do, 20.09. 7:30 -
Do, 20.09. 7:20 -
Do, 20.09. 7:10 -
Do, 20.09. 7:00 -
Do, 20.09. 6:30 -
Do, 20.09. 6:00 -
Do, 20.09. 5:30 -
Do, 20.09. 5:00 -
Link zu dieser Seite / Seite empfehlen

Das Wetter in ...